UpdateThe SYLDA re-entered the Earths atmosphere on the 21st June, 2011 @ 15:16 GMT ± 2 minutes.
Inclination: 2.11°Revolution Number: 658Predicted Location: 0.4°N, 34.2°E
UpdateThe SYLDA is predicted to re-enter the Earths atmosphere on the 21st June, 2011 @ 15:16 GMT ± 7 hours.
SYLDA 1 37240U 10065D 11171.77202922 .74970770 -20539-4 44382-2 0 1697 2 37240 002.1221 009.4754 1282969 134.6927 208.4830 13.49275938 6444
Period: 120.15 minutesInclination: 2.11°Apogee: 3252 kmPerigee: 124 km Revolution Number: 658Predicted Location: 0.4°N, 34.2°E
UpdateThe SYLDA is predicted to re-enter the Earths atmosphere on the 21st June, 2011 @ 15:16 GMT ± 12 hours.
Period: 120.15 minutesInclination: 2.11°Apogee: 3252 kmPerigee: 124 km Revolution Number: 658Predicted Location: 0.4°N, 34.3°E
UpdateThe SYLDA is predicted to re-enter the Earths atmosphere on the 21st June, 2011 @ 15:14 GMT ± 15 hours.
SYLDA1 37240U 10065D 11171.55294906 .67741899 -19264-4 41839-2 0 16822 37240 002.1056 010.5541 1411122 132.5142 236.6503 13.19764431 6413
Period: 120.15 minutesInclination: 2.11°Apogee: 3252 kmPerigee: 124 km Revolution Number: 658Predicted Location: 0.3°N, 37.4°E
UpdateThe Ariane 5 ECA (SYLDA) debris is predicted to re-enter the Earths atmosphere on the 21st June, 2011 @ 11:37 GMT ± 24 hours.
SYLDA1 37240U 10065D 11170.84694109 .50223966 -16190-4 41087-2 0 16732 37240 002.1191 014.2314 1756612 124.7004 229.7064 12.40322192 6320
Period: 120.15 minutesInclination: 2.11°Apogee: 3252 kmPerigee: 124 km Revolution Number: 655Predicted Location: 0.3°N, 91°E
UpdateThe Ariane 5 ECA (SYLDA) debris is predicted to re-enter the Earths atmosphere on the 21st June, 2011 @ 17:04 GMT ± 48 hours.
SYLDA1 37240U 10065D 11168.91244213 .31451158 -80288-5 37991-2 0 16132 37240 002.1288 023.0606 2417893 107.2133 068.9190 10.93614436 6104
Period: 134.96 minutesInclination: 2.10°Apogee: 4545 kmPerigee: 130 km Revolution Number: 659Predicted Location: 0.2°S, 25.2°E
An Ariane 5 ECA (SYLDA) debris that was launched on the 26th November, 2010, from Kourou, French Guiana, for the HYLAS 1 and Intelsat 17 satellite missions is predicted to re-enter the Earths atmosphere on the 22nd June, 2011 @ 04:14 GMT ± 72 hours.
SYLDA1 37240U 10065D 11168.39086090 .23016494 -67328-5 35073-2 0 15662 37240 002.1193 025.1435 2553173 103.1020 204.3493 10.63720660 6043
Expand (27kb 857 x 564)
Period: 149.58 minutesInclination: 2.11°Apogee: 5794 kmPerigee: 118 km Revolution Number: 665Predicted Location: 0.5°N, 192.4°E